Tracking 17856 objects as of 28-September-2016
HD Live streaming from Space Station
objects crossing your sky now

DEMETER

Track DEMETER now!
10-day predictions
DEMETER is classified as:


NORAD ID: 28368
Int'l Code: 2004-025C
Perigee: 653.7 km
Apogee: 656.6 km
Inclination: 97.7 °
Period: 97.7 minutes
Semi major axis: 7026 km
RCS: 0.9257 m2 (medium)
Launch date: June 29, 2004
Source: France (FR)
Launch site: TYURATAM MISSILE AND SPACE COMPLEX (TTMTR)

Study of ionosperic perturbations in relation with seismic activity; global study of the Earth electromagnetic environment.
Your satellite tracking list
Your tracking list is empty





NASA's NSSDC Master Catalog

Two Line Element Set (TLE):
1 28368U 04025C   16272.13044407  .00000374  00000-0  63924-4 0  9991
2 28368  97.7140 277.7833 0002102  59.8764 300.2653 14.74098155657010
Source of the keplerian elements: AFSPC

N2YO: 504